SHT4H EGLL-EGAC

Flight info

Callsign SHT4H
Flight time 0h 56m
Altitude 34000
Route N0450F340 UMLAT T418 WELIN T420 TNT UL28 RODOL UM65 TENSO L603 BELOX DCT REMSI DCT NINEB M148 MAGEE DCT
Aircraft A320/M-SDE3FGIJ1KRWXY/SB1

Departure

Time 2026-04-18 10:56
Airport London Heathrow Airport (EGLL)

Arrival

Time 2026-04-18 11:52
Airport George Best Belfast City Airport (EGAC)
Time Latitude Longitude Altitude Speed Heading
2026-04-18 10:14 51.47208 -0.47188 90 ft 0 kts 89°
2026-04-18 10:41 51.47208 -0.47199 86 ft 4 kts 89°
2026-04-18 10:41 51.47208 -0.47242 89 ft 4 kts 89°
2026-04-18 10:41 51.47208 -0.47286 90 ft 4 kts 89°
2026-04-18 10:41 51.47206 -0.47326 89 ft 4 kts 63°
2026-04-18 10:42 51.47190 -0.47351 89 ft 4 kts
2026-04-18 10:42 51.47169 -0.47352 88 ft 4 kts 359°
2026-04-18 10:42 51.47164 -0.47352 86 ft 0 kts 359°
2026-04-18 10:45 51.47172 -0.47352 89 ft 3 kts 359°
2026-04-18 10:45 51.47188 -0.47353 89 ft 4 kts 359°
2026-04-18 10:46 51.47229 -0.47353 87 ft 7 kts 359°
2026-04-18 10:46 51.47290 -0.47354 86 ft 10 kts 359°
2026-04-18 10:46 51.47369 -0.47355 86 ft 13 kts 359°
2026-04-18 10:46 51.47466 -0.47356 86 ft 15 kts 359°
2026-04-18 10:47 51.47563 -0.47338 87 ft 15 kts 33°
2026-04-18 10:47 51.47585 -0.47175 89 ft 16 kts 87°
2026-04-18 10:47 51.47583 -0.46991 87 ft 16 kts 90°
2026-04-18 10:47 51.47592 -0.46801 86 ft 18 kts 83°
2026-04-18 10:48 51.47593 -0.46587 86 ft 20 kts 91°
2026-04-18 10:48 51.47593 -0.46348 86 ft 23 kts 89°
2026-04-18 10:48 51.47595 -0.46084 90 ft 25 kts 90°
2026-04-18 10:48 51.47596 -0.45794 87 ft 27 kts 89°
2026-04-18 10:49 51.47598 -0.45488 86 ft 27 kts 90°
2026-04-18 10:49 51.47599 -0.45183 86 ft 26 kts 89°
2026-04-18 10:49 51.47600 -0.44915 86 ft 22 kts 91°
2026-04-18 10:49 51.47600 -0.44665 86 ft 23 kts 90°
2026-04-18 10:50 51.47601 -0.44399 86 ft 22 kts 89°
2026-04-18 10:50 51.47593 -0.44143 86 ft 23 kts 89°
2026-04-18 10:50 51.47593 -0.43967 86 ft 7 kts 89°
2026-04-18 10:50 51.47593 -0.43965 86 ft 0 kts 89°
2026-04-18 10:52 51.47593 -0.43957 86 ft 2 kts 89°
2026-04-18 10:52 51.47593 -0.43923 86 ft 4 kts 89°
2026-04-18 10:52 51.47594 -0.43865 86 ft 6 kts 89°
2026-04-18 10:52 51.47604 -0.43786 90 ft 8 kts 52°
2026-04-18 10:53 51.47627 -0.43773 88 ft 2 kts 350°
2026-04-18 10:53 51.47644 -0.43786 87 ft 4 kts 338°
2026-04-18 10:53 51.47683 -0.43812 87 ft 8 kts 338°
2026-04-18 10:53 51.47742 -0.43863 87 ft 12 kts 322°
2026-04-18 10:54 51.47766 -0.43990 86 ft 1 kts 270°
2026-04-18 10:55 51.47766 -0.43999 85 ft 5 kts 270°
2026-04-18 10:55 51.47767 -0.44459 87 ft 76 kts 269°
2026-04-18 10:55 51.47761 -0.45625 85 ft 130 kts 269°
2026-04-18 10:56 51.47751 -0.47254 358 ft 148 kts 271°
2026-04-18 10:56 51.47729 -0.48913 969 ft 150 kts 270°
2026-04-18 10:56 51.47710 -0.50617 1522 ft 158 kts 270°
2026-04-18 10:56 51.47690 -0.52505 1774 ft 181 kts 270°
2026-04-18 10:57 51.47780 -0.54631 2087 ft 201 kts 287°
2026-04-18 10:57 51.48393 -0.56780 2424 ft 225 kts 296°
2026-04-18 10:57 51.49131 -0.59096 3076 ft 239 kts 297°
2026-04-18 10:57 51.49901 -0.61497 3960 ft 243 kts 296°
2026-04-18 10:58 51.50683 -0.63935 4864 ft 249 kts 296°
2026-04-18 10:58 51.51516 -0.66399 5736 ft 254 kts 304°
2026-04-18 10:58 51.52911 -0.68163 6604 ft 265 kts 337°
2026-04-18 10:58 51.54760 -0.68616 7429 ft 273 kts 353°
2026-04-18 10:59 51.56681 -0.68719 8252 ft 279 kts 354°
2026-04-18 10:59 51.58642 -0.68777 9061 ft 284 kts 354°
2026-04-18 10:59 51.60641 -0.68862 9832 ft 290 kts 353°
2026-04-18 10:59 51.62699 -0.68996 10337 ft 306 kts 352°
2026-04-18 11:00 51.64904 -0.69192 10535 ft 329 kts 352°
2026-04-18 11:00 51.67246 -0.69433 10921 ft 343 kts 351°
2026-04-18 11:00 51.69642 -0.69694 11534 ft 348 kts 351°
2026-04-18 11:00 51.72075 -0.69969 12213 ft 353 kts 350°
2026-04-18 11:01 51.74541 -0.70253 12867 ft 357 kts 350°
2026-04-18 11:01 51.77039 -0.70536 13534 ft 362 kts 350°
2026-04-18 11:01 51.79561 -0.70815 14176 ft 366 kts 350°
2026-04-18 11:02 51.84689 -0.71379 15414 ft 372 kts 349°
2026-04-18 11:02 51.87286 -0.71670 16011 ft 375 kts 349°
2026-04-18 11:02 51.89900 -0.71967 16585 ft 379 kts 349°
2026-04-18 11:02 51.92544 -0.72268 17169 ft 383 kts 349°
2026-04-18 11:03 51.95183 -0.72573 17752 ft 386 kts 349°
2026-04-18 11:03 51.97879 -0.72884 18350 ft 390 kts 349°
2026-04-18 11:03 52.00602 -0.73213 18896 ft 392 kts 346°
2026-04-18 11:03 52.03263 -0.74030 19442 ft 387 kts 336°
2026-04-18 11:04 52.05827 -0.75343 20049 ft 387 kts 334°
2026-04-18 11:04 52.08405 -0.76690 20621 ft 390 kts 334°
2026-04-18 11:04 52.11005 -0.78049 21184 ft 393 kts 334°
2026-04-18 11:04 52.13613 -0.79410 21723 ft 396 kts 334°
2026-04-18 11:05 52.16248 -0.80787 22258 ft 399 kts 334°
2026-04-18 11:05 52.18896 -0.82174 22766 ft 401 kts 334°
2026-04-18 11:05 52.21566 -0.83576 23271 ft 404 kts 334°
2026-04-18 11:05 52.24224 -0.85088 23753 ft 402 kts 328°
2026-04-18 11:06 52.26691 -0.87166 24162 ft 396 kts 320°
2026-04-18 11:06 52.29050 -0.89517 24618 ft 399 kts 320°
2026-04-18 11:06 52.31424 -0.91886 25016 ft 401 kts 320°
2026-04-18 11:06 52.33811 -0.94266 25401 ft 403 kts 320°
2026-04-18 11:07 52.36217 -0.96667 25778 ft 406 kts 320°
2026-04-18 11:07 52.38635 -0.99086 26150 ft 408 kts 320°
2026-04-18 11:07 52.41060 -1.01517 26604 ft 409 kts 320°
2026-04-18 11:07 52.43493 -1.03956 27003 ft 411 kts 321°
2026-04-18 11:08 52.44802 -1.05271 27144 ft 414 kts 320°
2026-04-18 11:08 52.47262 -1.07751 27536 ft 415 kts 321°
2026-04-18 11:09 52.49730 -1.10226 27913 ft 417 kts 321°
2026-04-18 11:09 52.52221 -1.12724 28321 ft 420 kts 321°
2026-04-18 11:09 52.54722 -1.15238 28649 ft 423 kts 321°
2026-04-18 11:09 52.57234 -1.17764 28989 ft 425 kts 321°
2026-04-18 11:10 52.59773 -1.20321 29324 ft 428 kts 321°
2026-04-18 11:10 52.62316 -1.22883 29654 ft 430 kts 321°
2026-04-18 11:10 52.64876 -1.25470 29979 ft 433 kts 321°
2026-04-18 11:10 52.67444 -1.28075 30397 ft 432 kts 321°
2026-04-18 11:11 52.70002 -1.30670 30787 ft 432 kts 321°
2026-04-18 11:11 52.72561 -1.33269 31168 ft 432 kts 321°
2026-04-18 11:11 52.75117 -1.35873 31498 ft 432 kts 321°
2026-04-18 11:11 52.77676 -1.38486 31895 ft 433 kts 321°
2026-04-18 11:12 52.80246 -1.41112 32236 ft 434 kts 321°
2026-04-18 11:12 52.82814 -1.43737 32605 ft 434 kts 321°
2026-04-18 11:12 52.85384 -1.46367 32980 ft 434 kts 321°
2026-04-18 11:12 52.87918 -1.48963 33364 ft 434 kts 321°
2026-04-18 11:13 52.90482 -1.51597 33757 ft 434 kts 321°
2026-04-18 11:13 52.93047 -1.54240 34131 ft 434 kts 321°
2026-04-18 11:13 52.98191 -1.59542 34210 ft 437 kts 321°
2026-04-18 11:14 53.03361 -1.64879 34209 ft 437 kts 321°
2026-04-18 11:14 53.08528 -1.70238 34195 ft 437 kts 321°
2026-04-18 11:15 53.13684 -1.75603 34195 ft 437 kts 321°
2026-04-18 11:15 53.18842 -1.80985 34195 ft 437 kts 321°
2026-04-18 11:16 53.23993 -1.86383 34229 ft 437 kts 322°
2026-04-18 11:16 53.29249 -1.91544 34235 ft 440 kts 324°
2026-04-18 11:17 53.34613 -1.96505 34224 ft 440 kts 324°
2026-04-18 11:17 53.39963 -2.01482 34227 ft 439 kts 324°
2026-04-18 11:18 53.45247 -2.06503 34202 ft 439 kts 324°
2026-04-18 11:18 53.50583 -2.11635 34198 ft 439 kts 324°
2026-04-18 11:19 53.55814 -2.16774 34194 ft 435 kts 319°
2026-04-18 11:19 53.60072 -2.23695 34192 ft 420 kts 300°
2026-04-18 11:20 53.62705 -2.32273 34199 ft 411 kts 287°
2026-04-18 11:20 53.64766 -2.41270 34195 ft 411 kts 287°
2026-04-18 11:21 53.66825 -2.50262 34201 ft 411 kts 287°
2026-04-18 11:21 53.68874 -2.59270 34203 ft 411 kts 287°
2026-04-18 11:22 53.70903 -2.68245 34228 ft 412 kts 287°
2026-04-18 11:22 53.72941 -2.77293 34221 ft 412 kts 288°
2026-04-18 11:23 53.74985 -2.86370 34223 ft 413 kts 288°
2026-04-18 11:23 53.77020 -2.95458 34222 ft 413 kts 288°
2026-04-18 11:24 53.79041 -3.04566 34222 ft 414 kts 288°
2026-04-18 11:24 53.81061 -3.13688 33982 ft 414 kts 288°
2026-04-18 11:25 53.82070 -3.18247 33709 ft 413 kts 288°
2026-04-18 11:25 53.83077 -3.22804 33438 ft 413 kts 288°
2026-04-18 11:25 53.84069 -3.27303 33175 ft 412 kts 287°
2026-04-18 11:25 53.85080 -3.31903 32905 ft 412 kts 287°
2026-04-18 11:26 53.86062 -3.36400 32569 ft 411 kts 287°
2026-04-18 11:26 53.87051 -3.40949 31790 ft 412 kts 287°
2026-04-18 11:26 53.88031 -3.45471 31329 ft 405 kts 287°
2026-04-18 11:26 53.89000 -3.49935 30772 ft 402 kts 287°
2026-04-18 11:27 53.89961 -3.54360 30206 ft 398 kts 287°
2026-04-18 11:27 53.90912 -3.58750 29609 ft 394 kts 287°
2026-04-18 11:27 53.91847 -3.63070 29075 ft 388 kts 287°
2026-04-18 11:27 53.92769 -3.67344 28537 ft 383 kts 287°
2026-04-18 11:28 53.93676 -3.71562 28009 ft 379 kts 287°
2026-04-18 11:28 53.94281 -3.74383 27677 ft 376 kts 287°
2026-04-18 11:28 53.95172 -3.78547 27149 ft 373 kts 287°
2026-04-18 11:28 53.96114 -3.82643 26630 ft 371 kts 293°
2026-04-18 11:29 53.97343 -3.86434 26151 ft 370 kts 297°
2026-04-18 11:29 53.98627 -3.90212 25646 ft 368 kts 297°
2026-04-18 11:29 53.99902 -3.93971 25168 ft 366 kts 297°
2026-04-18 11:29 54.01168 -3.97722 24689 ft 365 kts 297°
2026-04-18 11:30 54.02425 -4.01467 24226 ft 363 kts 297°
2026-04-18 11:30 54.03671 -4.05191 23765 ft 362 kts 297°
2026-04-18 11:30 54.04915 -4.08901 23277 ft 360 kts 297°
2026-04-18 11:30 54.06159 -4.12578 22840 ft 357 kts 300°
2026-04-18 11:31 54.07569 -4.16039 22393 ft 355 kts 303°
2026-04-18 11:31 54.08991 -4.19451 21951 ft 351 kts 303°
2026-04-18 11:31 54.10394 -4.22836 21517 ft 348 kts 303°
2026-04-18 11:31 54.11785 -4.26197 21059 ft 345 kts 303°
2026-04-18 11:32 54.13160 -4.29527 20620 ft 342 kts 303°
2026-04-18 11:32 54.14522 -4.32829 20154 ft 339 kts 303°
2026-04-18 11:32 54.15875 -4.36116 19694 ft 337 kts 303°
2026-04-18 11:32 54.17216 -4.39377 19238 ft 335 kts 303°
2026-04-18 11:33 54.18552 -4.42622 18761 ft 334 kts 303°
2026-04-18 11:33 54.19884 -4.45860 18264 ft 332 kts 303°
2026-04-18 11:33 54.21209 -4.49085 17773 ft 330 kts 303°
2026-04-18 11:33 54.22521 -4.52285 17303 ft 327 kts 303°
2026-04-18 11:34 54.23820 -4.55459 16838 ft 325 kts 303°
2026-04-18 11:34 54.25112 -4.58615 16371 ft 323 kts 303°
2026-04-18 11:34 54.26394 -4.61755 15901 ft 321 kts 302°
2026-04-18 11:34 54.27670 -4.64882 15438 ft 319 kts 302°
2026-04-18 11:35 54.28936 -4.67992 14970 ft 318 kts 302°
2026-04-18 11:35 54.30178 -4.71050 14527 ft 316 kts 302°
2026-04-18 11:35 54.31448 -4.74179 14059 ft 315 kts 302°
2026-04-18 11:35 54.32679 -4.77218 13564 ft 314 kts 302°
2026-04-18 11:36 54.33918 -4.80280 13112 ft 311 kts 302°
2026-04-18 11:36 54.35150 -4.83324 12634 ft 309 kts 302°
2026-04-18 11:36 54.36371 -4.86345 12177 ft 307 kts 302°
2026-04-18 11:36 54.37582 -4.89350 11724 ft 305 kts 302°
2026-04-18 11:37 54.38786 -4.92341 11293 ft 304 kts 302°
2026-04-18 11:37 54.39981 -4.95313 10857 ft 302 kts 302°
2026-04-18 11:37 54.41164 -4.98264 10570 ft 295 kts 302°
2026-04-18 11:37 54.42310 -5.01115 10439 ft 284 kts 302°
2026-04-18 11:38 54.43417 -5.03875 10220 ft 277 kts 302°
2026-04-18 11:38 54.44501 -5.06578 9928 ft 273 kts 303°
2026-04-18 11:38 54.45579 -5.09233 9659 ft 268 kts 303°
2026-04-18 11:38 54.46809 -5.11581 9414 ft 265 kts 320°
2026-04-18 11:39 54.48311 -5.13370 9170 ft 260 kts 323°
2026-04-18 11:39 54.49815 -5.15053 8941 ft 256 kts 324°
2026-04-18 11:39 54.51294 -5.16700 8701 ft 251 kts 324°
2026-04-18 11:39 54.52748 -5.18319 8461 ft 247 kts 324°
2026-04-18 11:40 54.54180 -5.19915 8222 ft 243 kts 324°
2026-04-18 11:40 54.55588 -5.21486 7987 ft 239 kts 324°
2026-04-18 11:40 54.56972 -5.23032 7755 ft 235 kts 324°
2026-04-18 11:40 54.58333 -5.24554 7524 ft 231 kts 324°
2026-04-18 11:41 54.59669 -5.26051 7294 ft 227 kts 324°
2026-04-18 11:41 54.60978 -5.27522 7068 ft 224 kts 324°
2026-04-18 11:41 54.62284 -5.28994 6841 ft 222 kts 324°
2026-04-18 11:41 54.63574 -5.30453 6612 ft 222 kts 324°
2026-04-18 11:42 54.64859 -5.31908 6390 ft 219 kts 324°
2026-04-18 11:42 54.66123 -5.33339 6150 ft 215 kts 324°
2026-04-18 11:42 54.67362 -5.34742 5910 ft 212 kts 324°
2026-04-18 11:42 54.68584 -5.36128 5675 ft 208 kts 324°
2026-04-18 11:43 54.69779 -5.37485 5445 ft 204 kts 324°
2026-04-18 11:43 54.70956 -5.38822 5213 ft 200 kts 324°
2026-04-18 11:43 54.72115 -5.40141 4981 ft 198 kts 324°
2026-04-18 11:43 54.73212 -5.41538 4744 ft 194 kts 314°
2026-04-18 11:44 54.74117 -5.43236 4492 ft 190 kts 309°
2026-04-18 11:44 54.74966 -5.44963 4255 ft 187 kts 309°
2026-04-18 11:44 54.75799 -5.46679 4022 ft 185 kts 309°
2026-04-18 11:44 54.76621 -5.48378 3787 ft 183 kts 309°
2026-04-18 11:45 54.77423 -5.50044 3560 ft 181 kts 309°
2026-04-18 11:45 54.78224 -5.51715 3318 ft 179 kts 309°
2026-04-18 11:45 54.79029 -5.53382 3099 ft 176 kts 309°
2026-04-18 11:45 54.79805 -5.54960 3018 ft 170 kts 309°
2026-04-18 11:46 54.80516 -5.56575 3010 ft 168 kts 292°
2026-04-18 11:46 54.80620 -5.58540 3017 ft 170 kts 265°
2026-04-18 11:46 54.80366 -5.60590 3014 ft 172 kts 260°
2026-04-18 11:46 54.80052 -5.62579 3051 ft 171 kts 258°
2026-04-18 11:47 54.79733 -5.64529 3016 ft 170 kts 256°
2026-04-18 11:47 54.79142 -5.66284 2999 ft 167 kts 232°
2026-04-18 11:47 54.78223 -5.67511 3003 ft 166 kts 222°
2026-04-18 11:47 54.77289 -5.68637 3008 ft 163 kts 223°
2026-04-18 11:48 54.76357 -5.69762 3011 ft 162 kts 223°
2026-04-18 11:48 54.75426 -5.70887 3011 ft 163 kts 222°
2026-04-18 11:48 54.74495 -5.72010 2892 ft 163 kts 222°
2026-04-18 11:48 54.73573 -5.73119 2739 ft 160 kts 223°
2026-04-18 11:49 54.72658 -5.74223 2514 ft 161 kts 221°
2026-04-18 11:49 54.71753 -5.75311 2293 ft 152 kts 222°
2026-04-18 11:49 54.70919 -5.76311 2091 ft 141 kts 223°
2026-04-18 11:49 54.70125 -5.77268 1898 ft 138 kts 222°
2026-04-18 11:50 54.69341 -5.78212 1706 ft 136 kts 224°
2026-04-18 11:50 54.68568 -5.79142 1512 ft 134 kts 224°
2026-04-18 11:50 54.67798 -5.80069 1327 ft 136 kts 223°
2026-04-18 11:50 54.67020 -5.81003 1140 ft 135 kts 225°
2026-04-18 11:51 54.66251 -5.81926 952 ft 134 kts 223°
2026-04-18 11:51 54.65477 -5.82855 766 ft 136 kts 221°
2026-04-18 11:51 54.64701 -5.83786 583 ft 136 kts 220°
2026-04-18 11:51 54.63923 -5.84719 404 ft 137 kts 220°
2026-04-18 11:52 54.63139 -5.85657 219 ft 136 kts 220°
2026-04-18 11:52 54.62353 -5.86600 40 ft 138 kts 218°
2026-04-18 11:52 54.61677 -5.87402 18 ft 81 kts 214°
2026-04-18 11:52 54.61394 -5.87735 13 ft 39 kts 216°
2026-04-18 11:53 54.61279 -5.87774 15 ft 5 kts 115°